MST,Max TemperatureF,Mean TemperatureF,Min TemperatureF,Max Dew PointF,MeanDew PointF,Min DewpointF,Max Humidity, Mean Humidity, Min Humidity, Max Sea Level PressureIn, Mean Sea Level PressureIn, Min Sea Level PressureIn, Max VisibilityMiles, Mean VisibilityMiles, Min VisibilityMiles, Max Wind SpeedMPH, Mean Wind SpeedMPH, Max Gust SpeedMPH,PrecipitationIn, CloudCover, Events, WindDirDegrees
2012-9-1,81,72,63,61,59,56,81,65,49,29.97,29.93,29.88,10,10,10,12,4,,0.01,3,Thunderstorm,189
2012-9-2,84,74,64,62,59,55,87,68,39,30.18,29.98,29.87,10,10,9,15,4,21,0.12,2,Rain-Thunderstorm,183
2012-9-3,86,72,59,60,55,49,93,57,28,30.19,29.98,29.92,10,10,10,10,3,18,0.00,2,,222
2012-9-4,81,72,63,63,59,57,90,67,49,30.26,30.03,29.95,10,10,7,18,5,23,0.19,4,Rain-Thunderstorm,249
2012-9-5,86,72,57,60,55,45,90,59,24,30.03,29.94,29.86,10,10,10,8,3,,0.00,1,,207
2012-9-6,86,74,61,59,56,53,78,54,35,30.13,29.91,29.85,10,10,10,13,5,,0.00,2,,213
2012-9-7,78,71,64,62,60,58,87,74,54,30.27,30.00,29.89,10,10,9,12,4,,0.09,4,Rain-Thunderstorm,187
2012-9-8,87,75,63,60,56,46,87,60,25,30.18,29.97,29.88,10,10,9,10,3,,0.00,1,,131
2012-9-9,82,70,59,58,54,45,87,56,28,30.15,29.97,29.89,10,10,6,16,8,25,0.00,2,,155
2012-9-10,75,70,63,60,58,55,90,69,53,30.20,29.98,29.91,10,9,6,13,2,,0.03,4,Rain-Thunderstorm,179
2012-9-11,64,62,59,61,58,55,96,87,73,30.17,30.01,29.91,10,9,2,12,5,,0.15,6,Rain,154
2012-9-12,78,66,54,57,54,50,100,74,37,30.22,30.03,29.92,10,9,2,12,4,17,0.01,4,,297
2012-9-13,81,68,54,52,46,40,90,51,24,30.11,30.07,30.02,10,10,10,16,5,23,0.00,0,,80
2012-9-14,79,66,53,44,37,30,69,39,18,30.17,30.12,30.08,10,10,10,17,4,26,0.00,0,,81
2012-9-15,82,64,46,40,35,30,66,36,15,30.33,30.11,30.03,10,10,10,8,3,,0.00,0,,207
2012-9-16,84,68,51,41,35,27,63,32,13,30.09,30.02,29.96,10,10,10,10,5,,0.00,0,,213
2012-9-17,82,68,55,49,41,35,63,40,19,30.21,29.97,29.92,10,10,10,14,6,18,0.00,1,,231
2012-9-18,86,70,53,46,37,26,71,35,12,30.21,30.00,29.94,10,10,10,9,4,,0.00,0,,202
2012-9-19,86,70,54,42,38,33,59,34,16,30.17,30.00,29.94,10,10,10,12,5,,0.00,1,,206
2012-9-20,88,72,55,39,36,31,53,31,14,30.02,29.96,29.91,10,10,10,12,5,,0.00,1,,212
2012-9-21,89,72,55,41,36,31,53,31,13,30.00,29.93,29.87,10,10,10,9,4,,0.00,1,,195
2012-9-22,86,72,57,44,38,34,49,35,16,30.19,29.98,29.91,10,10,10,10,4,21,0.00,2,,205
2012-9-23,84,70,57,45,40,36,62,37,17,30.20,30.00,29.95,10,10,10,13,4,25,0.00,2,Thunderstorm,220
2012-9-24,82,68,55,43,36,31,53,31,16,30.14,29.92,29.83,10,10,10,21,9,29,0.00,2,,221
2012-9-25,80,67,54,38,34,30,53,34,17,30.05,29.85,29.79,10,10,10,15,5,25,0.00,0,,211
2012-9-26,80,64,48,36,33,31,54,33,17,30.06,29.88,29.83,10,10,10,12,5,,0.00,1,,223
2012-9-27,81,66,51,40,35,32,54,35,17,29.99,29.94,29.89,10,10,10,8,4,,0.00,1,,213
2012-9-28,82,66,51,41,35,25,66,36,12,29.97,29.90,29.83,10,10,10,10,5,,0.00,1,,209
2012-9-29,82,66,51,42,36,28,59,37,15,30.03,29.97,29.91,10,10,10,9,2,,0.00,1,,231
2012-9-30,84,68,51,37,29,19,53,30,10,30.08,30.01,29.94,10,10,10,13,5,26,0.00,0,,208